Weather History for McCook, NE

Change the Weather History Date:

Thursday, February 14, 2013

  Actual Average Record
Temperature  
Mean Temperature 29 °F 30 °F  
Max Temperature 42 °F 44 °F 78 °F (1999)
Min Temperature 16 °F 17 °F -16 °F (1923)
Degree Days  
Heating Degree Days 35    
Moisture  
Dew Point 22 °F    
Average Humidity 68    
Maximum Humidity 86    
Minimum Humidity 39    
Precipitation  
Precipitation 0.00 in 0.02 in 0.11 in (1952)
Month to date precipitation 0.29 0.27  
Year to date precipitation 0.34 0.78  
Sea Level Pressure  
Sea Level Pressure 30.19 in    
Wind  
Wind Speed 11 mph (NW)    
Max Wind Speed 24 mph    
Max Gust Speed 31 mph    
Visibility 10 miles    
Events      
T = Trace of Precipitation, MM = Missing Value Source: NWS Daily Summary

Daily Weather History Graph

Daily Weather History Graph

Search for Another Location

Airport:

Trip Planner

Search our weather history database for the weather conditions in past years. The results will help you decide how hot, cold, wet, or windy it might be!

Date:

Astronomy

Feb. 14, 2013 Rise Set
Actual Time 7:36 AM CST 6:17 PM CST
Civil Twilight 7:08 AM CST 6:45 PM CST
Nautical Twilight 6:36 AM CST 7:16 PM CST
Astronomical Twilight 6:05 AM CST 7:48 PM CST
Moon 9:38 AM CST (2/14) 11:22 PM CST (2/14)
Length of Visible Light 11h 36m
Length of Day
10h 40m
Waxing Crescent, 22% of the Moon is Illuminated
Feb 14
Waxing Crescent
Feb 17
First Quarter
Feb 25
Full
Mar 4
Last Quarter
Mar 11
New

Hourly Weather History & Observations

Time (CST) Temp. Windchill Dew Point Humidity Pressure Visibility Wind Dir Wind Speed Gust Speed Precip Events Conditions
12:53 AM 34.0 °F 25.0 °F 28.0 °F 79% 30.00 in 10.0 mi WNW 12.7 mph - N/A   Clear
1:53 AM 33.1 °F 24.9 °F 27.0 °F 78% 30.01 in 10.0 mi West 10.4 mph - N/A   Clear
2:53 AM 32.0 °F 23.6 °F 27.0 °F 82% 30.02 in 10.0 mi WNW 10.4 mph - N/A   Clear
3:53 AM 28.9 °F 23.9 °F 25.0 °F 85% 30.03 in 10.0 mi SW 4.6 mph - N/A   Clear
4:53 AM 28.9 °F 21.9 °F 25.0 °F 85% 30.04 in 10.0 mi West 6.9 mph - N/A   Clear
5:53 AM 30.2 °F 22.6 °F 26.6 °F 86% 30.01 in 10.0 mi WNW 8.1 mph - N/A   Clear
6:53 AM 28.9 °F 21.1 °F 25.0 °F 85% 30.06 in 10.0 mi WNW 8.1 mph - N/A   Clear
7:53 AM 30.0 °F 24.1 °F 26.1 °F 85% 30.10 in 10.0 mi SW 5.8 mph - N/A   Overcast
8:53 AM 33.1 °F 27.7 °F 28.0 °F 82% 30.14 in 10.0 mi SW 5.8 mph - N/A   Overcast
9:53 AM 35.1 °F 28.6 °F 28.0 °F 76% 30.15 in 10.0 mi West 8.1 mph - N/A   Overcast
10:53 AM 37.0 °F 31.6 °F 28.9 °F 73% 30.15 in 10.0 mi WNW 6.9 mph - N/A   Overcast
11:53 AM 39.9 °F 33.9 °F 23.0 °F 51% 30.19 in 10.0 mi NW 9.2 mph - N/A   Overcast
12:53 PM 41.0 °F 33.9 °F 21.0 °F 45% 30.19 in 10.0 mi West 12.7 mph 18.4 mph N/A   Overcast
1:53 PM 39.9 °F 31.4 °F 24.1 °F 53% 30.21 in 10.0 mi NNW 16.1 mph 25.3 mph N/A   Overcast
2:53 PM 41.0 °F 31.9 °F 19.9 °F 43% 30.20 in 10.0 mi NNW 19.6 mph 27.6 mph N/A   Overcast
3:53 PM 39.0 °F 28.3 °F 16.0 °F 39% 30.24 in 10.0 mi NNW 24.2 mph - N/A   Mostly Cloudy
4:53 PM 37.9 °F 27.6 °F 16.0 °F 41% 30.28 in 10.0 mi NNW 20.7 mph 31.1 mph N/A   Partly Cloudy
5:53 PM 35.1 °F 23.3 °F 15.1 °F 44% 30.30 in 10.0 mi North 23.0 mph 27.6 mph N/A   Partly Cloudy
6:53 PM 30.9 °F 21.2 °F 16.0 °F 54% 30.34 in 10.0 mi NNW 12.7 mph - N/A   Partly Cloudy
7:53 PM 28.0 °F 18.6 °F 16.0 °F 61% 30.36 in 10.0 mi North 10.4 mph - N/A   Clear
8:53 PM 23.0 °F 12.4 °F 16.0 °F 74% 30.38 in 10.0 mi NNW 10.4 mph - N/A   Clear
9:53 PM 21.9 °F 11.7 °F 16.0 °F 78% 30.39 in 10.0 mi NW 9.2 mph - N/A   Clear
10:53 PM 19.9 °F 10.1 °F 15.1 °F 81% 30.39 in 10.0 mi NW 8.1 mph - N/A   Clear
11:53 PM 19.0 °F 11.1 °F 14.0 °F 81% 30.40 in 10.0 mi North 5.8 mph - N/A   Clear